[[{"header":{"parameterUnit":"m.s-1","parameterCategory":2,"la1":30.2991,"la2":30.254,"lo1":-89.0895,"lo2":-89.0444,"dy":0.0017,"dx":0.0017,"nx":28,"ny":28,"refTime":"2025-07-20T09:00:00:Z","depth":"0","parameterNumber":2,"parameterNumberName":"U-component_of_CURRENTS"},"data":[0,0,0,0,0,0,0,0,0,0,0,0,0,0,0,0,0,0,0,0,0,0,0,0,0,0,0,0,0,0,0,0,0,0,0,0,0,0,0,0,0,0,0,0,0,0,0,0,0,0,0,0,0,0,0,0,0,0,-0.1713,-0.1714,0,-0.1777,-0.1778,-0.1778,-0.1732,-0.173,-0.1729,-0.1727,-0.1731,-0.1732,-0.1734,0,0,0,0,0,0,0,0,0,0,0,0,0,-0.1543,-0.1546,-0.1713,-0.1714,-0.1716,-0.1777,-0.1778,-0.1778,-0.1732,-0.173,-0.1728,-0.1726,-0.173,-0.1732,-0.1734,0,0,0,0,0,0,0,0,0,0,0,0,0,-0.1609,-0.1547,-0.1713,-0.1703,-0.1703,-0.1777,-0.1778,-0.1778,-0.1733,-0.173,-0.1728,-0.1726,-0.173,-0.1732,-0.1734,-0.1799,0,0,-0.1742,-0.1743,0,0,0,0,0,0,0,0,-0.1605,-0.1615,-0.1704,-0.1704,-0.1704,-0.1748,-0.1719,-0.1784,-0.1733,-0.1717,-0.1727,-0.1724,-0.1736,-0.1737,-0.175,-0.1799,-0.18,-0.1742,-0.1744,-0.1745,-0.1745,0,0,0,0,0,0,0,-0.1601,-0.1612,-0.1734,-0.1705,-0.1706,-0.1693,-0.17,-0.1731,-0.1735,-0.1718,-0.1716,-0.1731,-0.1734,-0.1748,-0.1749,-0.18,-0.1742,-0.1744,-0.1746,-0.1747,-0.1939,-0.1942,0,0,0,0,0,0,-0.1606,-0.1608,-0.1732,-0.1737,-0.1653,-0.1699,-0.1706,-0.1733,-0.1736,-0.1736,-0.1733,-0.1729,-0.1745,-0.1747,-0.1749,-0.1822,-0.1745,-0.1747,-0.1748,-0.1935,-0.1939,-0.1943,0,0,0,0,0,0,-0.1602,-0.1617,-0.173,-0.1676,-0.169,-0.1705,-0.1736,-0.1736,-0.1737,-0.1749,-0.1746,-0.1733,-0.1743,-0.1746,-0.1806,-0.1822,-0.1748,-0.175,-0.1931,-0.1936,-0.1941,-0.197,0,0,0,0,0,0,-0.1597,-0.1615,-0.1623,-0.1677,-0.1693,-0.1785,-0.1739,-0.1739,-0.1753,-0.1747,-0.1749,-0.1747,-0.1741,-0.1802,-0.1808,-0.1824,-0.1752,-0.1926,-0.1933,-0.194,-0.1965,-0.1976,-0.1986,0,0,0,0,0,-0.1591,-0.1617,-0.1624,-0.1638,-0.1709,-0.1787,-0.1795,-0.1792,-0.1756,-0.1778,-0.1791,-0.1746,-0.1849,-0.1808,-0.1814,-0.183,-0.1923,-0.1931,-0.1939,-0.196,-0.1974,-0.1986,0,0,0,0,0,0,-0.153,-0.1618,-0.1625,-0.167,-0.173,-0.1781,-0.1792,-0.1797,-0.1824,-0.1807,-0.1799,-0.1802,-0.186,-0.1863,-0.1818,-0.1914,-0.1877,-0.1886,-0.1891,-0.1904,-0.1914,-0.1879,-0.1754,0,0,0,0,0,-0.153,-0.1576,-0.1656,-0.1688,-0.1719,-0.1755,-0.1777,-0.1791,-0.1829,-0.1834,-0.1848,-0.1868,-0.1905,-0.1915,-0.1955,-0.2009,-0.1968,-0.2027,-0.2038,-0.2046,-0.2028,-0.1998,-0.2002,-0.197,-0.197,-0.197,0,0,-0.1506,-0.1565,-0.1583,-0.1679,-0.1713,-0.178,-0.1761,-0.181,-0.1853,-0.1835,-0.1887,-0.191,-0.1934,-0.1996,-0.202,-0.1992,-0.2042,-0.2056,-0.2062,-0.2039,-0.2007,-0.2009,-0.201,-0.1976,-0.1975,-0.1974,0,0,-0.1509,-0.1547,-0.1595,-0.166,-0.1742,-0.1783,-0.1801,-0.1873,-0.1886,-0.1965,-0.1956,-0.1991,-0.2059,-0.2069,-0.2082,-0.2181,-0.2106,-0.22,-0.2206,-0.2179,-0.2179,-0.2178,-0.2141,-0.2137,-0.2194,-0.2194,-0.2194,0,-0.1468,-0.1552,-0.1617,-0.1693,-0.1735,-0.1788,-0.1846,-0.1893,-0.1974,-0.1985,-0.1988,-0.2061,-0.2088,-0.2121,-0.2166,-0.2194,-0.2163,-0.2144,-0.2184,-0.2182,-0.2181,-0.2143,-0.2138,-0.2196,-0.2196,-0.2196,-0.2196,0,-0.1527,-0.1588,-0.1623,-0.1737,-0.1799,-0.1858,-0.1945,-0.1995,-0.2018,-0.2052,-0.2099,-0.2139,-0.2164,-0.2195,-0.2214,-0.2228,-0.2204,-0.22,-0.2129,-0.2184,-0.2144,-0.2137,-0.22,-0.2199,-0.2198,-0.2198,0,0,-0.1449,-0.1622,-0.1633,-0.1678,-0.1822,-0.1868,-0.1961,-0.204,-0.2059,-0.2128,-0.2137,-0.2218,-0.2204,-0.2221,-0.2233,-0.222,-0.2209,-0.221,-0.2208,-0.2134,-0.2133,-0.2039,-0.2023,-0.2198,-0.2197,-0.2197,-0.2108,0,-0.1463,-0.1581,-0.1679,-0.177,-0.183,-0.1919,-0.1992,-0.2068,-0.2123,-0.2159,-0.2172,-0.2204,-0.2223,-0.2226,-0.222,-0.2218,-0.2194,-0.2233,-0.2125,-0.2121,-0.1997,-0.2013,-0.1892,-0.1796,-0.2102,-0.2101,-0.21,0,-0.1492,-0.1567,-0.1655,-0.1771,-0.1801,-0.1859,-0.1944,-0.2018,-0.2098,-0.2136,-0.2157,-0.2182,-0.2193,-0.2197,-0.2164,-0.2184,-0.2162,-0.2147,-0.2143,-0.2031,-0.2015,-0.1795,-0.1773,-0.1767,-0.209,-0.2091,-0.2091,0,-0.1396,-0.1543,-0.1593,-0.1642,-0.1792,-0.1818,-0.1878,-0.1984,-0.2021,-0.2099,-0.2124,-0.2142,-0.2136,-0.2116,-0.2113,-0.2136,-0.205,-0.2075,-0.1958,-0.1951,-0.1812,-0.1794,-0.1729,-0.2027,-0.2027,-0.2028,-0.2028,0,-0.1381,-0.1422,-0.1538,-0.1567,-0.1592,-0.1728,-0.175,-0.1835,-0.1924,-0.194,-0.207,-0.2075,-0.2116,-0.2092,-0.2083,-0.1983,-0.2017,-0.194,-0.1914,-0.1825,-0.181,-0.1769,-0.1811,-0.2024,-0.2025,-0.2026,-0.2026,0,-0.1292,-0.138,-0.1428,-0.1536,-0.1551,-0.156,-0.1646,-0.1666,-0.1794,-0.1818,-0.184,-0.1991,-0.197,-0.1982,-0.1946,-0.1922,-0.1815,-0.1812,-0.1702,-0.1664,-0.1551,-0.1599,-0.1516,-0.1481,-0.1666,-0.1663,-0.1661,0,-0.1266,-0.1281,-0.1345,-0.1341,-0.1381,-0.1408,-0.142,-0.1556,-0.1582,-0.1746,-0.1733,-0.1793,-0.1784,-0.1723,-0.1682,-0.1602,-0.1667,-0.1482,-0.1509,-0.1503,-0.154,-0.1606,-0.1589,-0.135,-0.1345,-0.1341,-0.1338,0,-0.1188,-0.1196,-0.122,-0.1207,-0.1202,-0.1204,-0.1233,-0.1234,-0.1385,-0.1421,-0.1475,-0.1499,-0.1507,-0.141,-0.1367,-0.1328,-0.1443,-0.1397,-0.1415,-0.1295,-0.1336,-0.1302,-0.1462,-0.1303,-0.1306,-0.1309,-0.1311,-0.1312,-0.1092,-0.1069,-0.1076,-0.1057,-0.1049,-0.1007,-0.0957,-0.0987,-0.098,-0.0996,-0.1115,-0.1053,-0.1149,-0.1074,-0.1065,-0.1034,-0.1147,-0.1031,-0.1092,-0.1161,-0.1116,-0.119,-0.0992,-0.0994,-0.0995,-0.0996,-0.0998,0,-0.0976,-0.0955,-0.0929,-0.0894,-0.0838,-0.0878,-0.084,-0.0773,-0.0688,-0.0647,-0.0615,-0.0549,-0.0571,-0.0694,-0.076,-0.0751,-0.0787,-0.0779,-0.0855,-0.0854,-0.0911,-0.0884,-0.0623,-0.0623,-0.0623,-0.0623,-0.0623,-0.0623,-0.0908,-0.0843,-0.0835,-0.0705,-0.0674,-0.0561,-0.0511,-0.0408,-0.0336,-0.0151,-0.0028,0.0019,-0.0236,-0.0554,-0.0667,-0.0653,-0.071,-0.0674,-0.0765,-0.0822,-0.0851,-0.088,-0.0864,-0.0602,-0.0602,-0.0647,-0.0647,-0.0647]},{"header":{"parameterUnit":"m.s-1","parameterCategory":2,"la1":30.2991,"la2":30.254,"lo1":-89.0895,"lo2":-89.0444,"dy":0.0017,"dx":0.0017,"nx":28,"ny":28,"refTime":"2025-07-20T09:00:00:Z","depth":"0","parameterNumber":3,"parameterNumberName":"V-component_of_CURRENTS"},"data":[0,0,0,0,0,0,0,0,0,0,0,0,0,0,0,0,0,0,0,0,0,0,0,0,0,0,0,0,0,0,0,0,0,0,0,0,0,0,0,0,0,0,0,0,0,0,0,0,0,0,0,0,0,0,0,0,0,0,0.0408,0.041,0,0.0525,0.0527,0.0528,0.0606,0.0607,0.0607,0.0608,0.0738,0.074,0.0743,0,0,0,0,0,0,0,0,0,0,0,0,0,0.028,0.0282,0.0408,0.041,0.0411,0.0525,0.0527,0.0528,0.0606,0.0607,0.0607,0.0608,0.0737,0.074,0.0744,0,0,0,0,0,0,0,0,0,0,0,0,0,0.0359,0.0282,0.0408,0.0465,0.0471,0.0525,0.0527,0.0529,0.0606,0.0607,0.0608,0.0608,0.0736,0.074,0.0744,0.0751,0,0,0.0757,0.0759,0,0,0,0,0,0,0,0,0.0355,0.0364,0.0455,0.0461,0.0468,0.0553,0.0529,0.0604,0.0605,0.0553,0.0608,0.0609,0.0677,0.0686,0.0704,0.0758,0.0763,0.0758,0.076,0.0762,0.0763,0,0,0,0,0,0,0,0.0349,0.0359,0.0453,0.0456,0.0464,0.0494,0.0506,0.0544,0.0608,0.0558,0.0564,0.0579,0.0681,0.07,0.0708,0.0765,0.0757,0.0761,0.0764,0.0766,0.084,0.0839,0,0,0,0,0,0,0.0335,0.0354,0.045,0.0457,0.0414,0.0496,0.0509,0.0524,0.0607,0.0621,0.0578,0.0582,0.0692,0.0703,0.0713,0.0712,0.0762,0.0766,0.0768,0.084,0.0839,0.0839,0,0,0,0,0,0,0.0331,0.0342,0.0445,0.0409,0.0424,0.0497,0.0513,0.0526,0.0545,0.0622,0.0637,0.0584,0.0693,0.0707,0.074,0.0718,0.0768,0.0772,0.0841,0.084,0.0839,0.072,0,0,0,0,0,0,0.0327,0.034,0.0335,0.0408,0.0426,0.046,0.0513,0.0527,0.0553,0.0559,0.0632,0.0645,0.0695,0.0733,0.0744,0.0725,0.0775,0.0842,0.0841,0.0839,0.0725,0.0715,0.0707,0,0,0,0,0,0.0322,0.0304,0.0334,0.0345,0.042,0.0459,0.0469,0.0524,0.0552,0.0547,0.0602,0.0643,0.0734,0.0736,0.0749,0.0731,0.0842,0.0841,0.084,0.0729,0.0717,0.0707,0,0,0,0,0,0,0.0234,0.0313,0.0347,0.0351,0.0397,0.0472,0.0469,0.0514,0.0553,0.0558,0.0635,0.0651,0.0679,0.0719,0.0719,0.075,0.0795,0.0796,0.0706,0.0696,0.0687,0.0661,0.0779,0,0,0,0,0,0.0216,0.0226,0.0305,0.0303,0.0323,0.0396,0.0416,0.0455,0.0507,0.0526,0.0581,0.0636,0.0683,0.0699,0.075,0.0756,0.0794,0.0755,0.0746,0.0738,0.0726,0.0744,0.0735,0.0834,0.0834,0.0834,0,0,0.0178,0.0223,0.0227,0.0285,0.0324,0.0335,0.0409,0.0429,0.0439,0.0532,0.0551,0.0612,0.0682,0.07,0.0714,0.0727,0.0734,0.0736,0.0729,0.0722,0.0741,0.0731,0.0723,0.0833,0.0834,0.0834,0,0,0.0108,0.0151,0.0139,0.0174,0.023,0.0275,0.0278,0.0351,0.0383,0.0414,0.0486,0.0525,0.0594,0.0635,0.0666,0.0634,0.0695,0.0655,0.0576,0.0592,0.0583,0.0576,0.0624,0.0622,0.0638,0.0638,0.0638,0,0.0061,0.0066,0.0136,0.0136,0.0152,0.0242,0.0228,0.0272,0.0345,0.036,0.0401,0.0496,0.056,0.0577,0.0577,0.0612,0.0643,0.0607,0.0577,0.0571,0.0566,0.0617,0.0616,0.0632,0.0633,0.0633,0.0634,0,-0.001,-0.0004,-0.0014,0.0022,0.0042,0.0043,0.0118,0.0141,0.0196,0.0243,0.0281,0.0369,0.0421,0.045,0.0509,0.0502,0.0546,0.0571,0.0597,0.0548,0.0606,0.0607,0.0623,0.0626,0.0627,0.0629,0,0,-0.0099,-0.007,-0.0069,-0.0072,-0.0015,-0.0006,0.0006,0.0042,0.0051,0.0116,0.0127,0.0208,0.0259,0.0299,0.0373,0.0392,0.0401,0.0458,0.0461,0.0492,0.0457,0.0506,0.0514,0.0415,0.0414,0.0413,0.0517,0,-0.0169,-0.0206,-0.0165,-0.02,-0.0209,-0.0135,-0.0131,-0.0089,-0.0028,0.0007,0.0085,0.0132,0.02,0.0235,0.0256,0.0388,0.0397,0.0373,0.0512,0.0517,0.0554,0.0513,0.0564,0.0661,0.0519,0.0519,0.0519,0,-0.0233,-0.0249,-0.0299,-0.0296,-0.0294,-0.0302,-0.0274,-0.0256,-0.0186,-0.014,-0.0097,-0.0009,0.0054,0.0117,0.0246,0.0228,0.0319,0.0405,0.0411,0.0496,0.0567,0.0687,0.067,0.0798,0.0522,0.0522,0.0522,0,-0.0312,-0.0334,-0.0382,-0.038,-0.0367,-0.0376,-0.0365,-0.0309,-0.0297,-0.0225,-0.0198,-0.012,-0.0039,0.0046,0.0242,0.024,0.0394,0.0415,0.0532,0.0538,0.0629,0.0644,0.0739,0.0461,0.0461,0.0461,0.046,0,-0.0381,-0.0412,-0.0424,-0.0445,-0.0496,-0.0458,-0.0488,-0.0448,-0.0409,-0.0398,-0.0283,-0.0218,-0.0052,0.0076,0.0205,0.0388,0.036,0.0511,0.0556,0.0593,0.0603,0.0758,0.0792,0.0465,0.0464,0.0463,0.0462,0,-0.0429,-0.0444,-0.0492,-0.0514,-0.0527,-0.0554,-0.0566,-0.0578,-0.0525,-0.0498,-0.0477,-0.0285,-0.0093,0.0068,0.0274,0.0372,0.0606,0.0584,0.0636,0.0682,0.0889,0.0914,0.1023,0.1117,0.0715,0.0716,0.0718,0,-0.0452,-0.0485,-0.054,-0.0571,-0.0579,-0.0621,-0.0646,-0.0633,-0.0647,-0.0518,-0.0508,-0.0297,-0.0092,0.0232,0.0419,0.0624,0.0704,0.0774,0.0761,0.0898,0.0959,0.0961,0.1032,0.0853,0.0855,0.0857,0.0859,0,-0.0479,-0.0498,-0.0534,-0.0606,-0.0651,-0.0706,-0.0746,-0.0781,-0.0746,-0.0705,-0.0524,-0.0323,0.0047,0.0376,0.063,0.0742,0.0866,0.0819,0.0942,0.1049,0.1075,0.1189,0.081,0.0876,0.0874,0.0873,0.0872,0.0871,-0.048,-0.0511,-0.056,-0.0624,-0.0683,-0.075,-0.078,-0.082,-0.0826,-0.0715,-0.0511,-0.0154,0.0364,0.0775,0.0861,0.1083,0.1026,0.1171,0.1187,0.1175,0.1261,0.0925,0.1045,0.1044,0.1044,0.1043,0.1042,0,-0.0471,-0.0509,-0.0572,-0.0644,-0.0701,-0.0735,-0.081,-0.0811,-0.0799,-0.0663,-0.0444,0.0267,0.0687,0.1044,0.1357,0.1463,0.1476,0.1517,0.1541,0.1597,0.1301,0.1304,0.1507,0.1507,0.1506,0.1506,0.1506,0.1506,-0.0467,-0.0518,-0.0559,-0.0635,-0.0678,-0.0729,-0.0758,-0.0744,-0.0665,-0.0358,0.0016,0.0394,0.1022,0.1492,0.1772,0.1791,0.1919,0.1865,0.1942,0.1747,0.1716,0.1686,0.17,0.1982,0.1982,0.2258,0.2261,0.2263]}],[{"header":{"parameterUnit":"m.s-1","parameterCategory":2,"la1":30.2991,"la2":30.254,"lo1":-89.0895,"lo2":-89.0444,"dy":0.0017,"dx":0.0017,"nx":28,"ny":28,"refTime":"2025-07-20T09:00:00:Z","depth":"2","parameterNumber":2,"parameterNumberName":"U-component_of_CURRENTS"},"data":[0,0,0,0,0,0,0,0,0,0,0,0,0,0,0,0,0,0,0,0,0,0,0,0,0,0,0,0,0,0,0,0,0,0,0,0,0,0,0,0,0,0,0,0,0,0,0,0,0,0,0,0,0,0,0,0,0,0,-0.2349,-0.235,0,-0.2379,-0.2379,-0.2379,-0.2363,-0.2362,-0.2362,-0.2361,-0.2437,-0.2439,-0.2442,0,0,0,0,0,0,0,0,0,0,0,0,0,-0.2374,-0.2373,-0.2349,-0.235,-0.235,-0.2379,-0.2379,-0.2379,-0.2363,-0.2362,-0.2362,-0.2361,-0.2436,-0.2439,-0.2442,0,0,0,0,0,0,0,0,0,0,0,0,0,-0.2378,-0.2372,-0.2349,-0.2347,-0.2347,-0.2379,-0.2379,-0.238,-0.2363,-0.2362,-0.2361,-0.236,-0.2435,-0.2439,-0.2443,-0.2488,0,0,-0.2455,-0.2456,0,0,0,0,0,0,0,0,-0.2377,-0.2377,-0.2346,-0.2347,-0.2347,-0.2367,-0.2416,-0.2419,-0.2364,-0.2356,-0.2361,-0.236,-0.242,-0.2425,-0.243,-0.2491,-0.2495,-0.2455,-0.2458,-0.2459,-0.246,0,0,0,0,0,0,0,-0.2377,-0.2376,-0.236,-0.2347,-0.2348,-0.2377,-0.2375,-0.2416,-0.2393,-0.2356,-0.2355,-0.2361,-0.242,-0.2426,-0.2432,-0.2496,-0.2455,-0.2459,-0.2461,-0.2463,-0.2649,-0.2651,0,0,0,0,0,0,-0.2372,-0.2375,-0.2359,-0.2361,-0.2362,-0.2377,-0.2375,-0.2361,-0.2391,-0.2395,-0.2362,-0.2361,-0.242,-0.2427,-0.2434,-0.2446,-0.2459,-0.2463,-0.2465,-0.2646,-0.2649,-0.2652,0,0,0,0,0,0,-0.2372,-0.237,-0.2357,-0.2371,-0.2372,-0.2377,-0.2362,-0.2362,-0.2393,-0.2396,-0.24,-0.2395,-0.2419,-0.2429,-0.2503,-0.245,-0.2465,-0.2468,-0.2643,-0.2647,-0.2651,-0.2497,0,0,0,0,0,0,-0.2372,-0.2369,-0.2396,-0.237,-0.2371,-0.2363,-0.2363,-0.2363,-0.2397,-0.2395,-0.2425,-0.2429,-0.2419,-0.2497,-0.2507,-0.2456,-0.2471,-0.264,-0.2645,-0.2649,-0.2499,-0.2495,-0.2492,0,0,0,0,0,-0.2373,-0.2398,-0.2396,-0.2397,-0.2393,-0.2363,-0.2365,-0.2366,-0.24,-0.2396,-0.2451,-0.2429,-0.2533,-0.2503,-0.2514,-0.2462,-0.2637,-0.2643,-0.2649,-0.2501,-0.2496,-0.2492,0,0,0,0,0,0,-0.2415,-0.2398,-0.2396,-0.2413,-0.2385,-0.236,-0.2386,-0.2393,-0.2435,-0.246,-0.2473,-0.2481,-0.2523,-0.2557,-0.2523,-0.2546,-0.2579,-0.2587,-0.2462,-0.2459,-0.2455,-0.2424,-0.2475,0,0,0,0,0,-0.2439,-0.2464,-0.242,-0.244,-0.2427,-0.242,-0.2431,-0.2419,-0.2438,-0.2455,-0.248,-0.2528,-0.2555,-0.256,-0.2604,-0.2623,-0.2627,-0.2605,-0.2602,-0.2597,-0.259,-0.2568,-0.2558,-0.2671,-0.2671,-0.2671,0,0,-0.2472,-0.2464,-0.2484,-0.2455,-0.2446,-0.2408,-0.2422,-0.2427,-0.2405,-0.2463,-0.2488,-0.2534,-0.2574,-0.2578,-0.2597,-0.2591,-0.2571,-0.2605,-0.2599,-0.2594,-0.2573,-0.256,-0.2549,-0.2675,-0.2674,-0.2673,0,0,-0.2488,-0.2523,-0.2516,-0.2493,-0.2471,-0.2453,-0.2458,-0.2439,-0.244,-0.2476,-0.2503,-0.252,-0.2595,-0.2554,-0.2558,-0.2582,-0.2574,-0.262,-0.2533,-0.2511,-0.2498,-0.2488,-0.2459,-0.2447,-0.2588,-0.2587,-0.2587,0,-0.2529,-0.2496,-0.251,-0.247,-0.2456,-0.2467,-0.242,-0.2421,-0.2437,-0.2445,-0.2477,-0.2552,-0.2558,-0.2522,-0.2507,-0.2553,-0.2568,-0.2518,-0.2493,-0.2484,-0.2475,-0.2449,-0.2438,-0.2581,-0.2581,-0.2582,-0.2583,0,-0.2503,-0.2483,-0.2479,-0.2429,-0.2412,-0.2394,-0.2361,-0.2379,-0.2413,-0.2407,-0.2432,-0.245,-0.2477,-0.2467,-0.2482,-0.2423,-0.2462,-0.2499,-0.2471,-0.2452,-0.243,-0.242,-0.2571,-0.2573,-0.2575,-0.2577,0,0,-0.2544,-0.2476,-0.2468,-0.2425,-0.2393,-0.2362,-0.2349,-0.2313,-0.2327,-0.2342,-0.2335,-0.2328,-0.2356,-0.2367,-0.2371,-0.2321,-0.2234,-0.2375,-0.2377,-0.2289,-0.2194,-0.2112,-0.2094,-0.2271,-0.227,-0.2268,-0.2192,0,-0.2505,-0.2412,-0.2399,-0.2325,-0.2263,-0.2282,-0.2269,-0.2259,-0.2283,-0.2295,-0.2283,-0.2302,-0.2309,-0.2318,-0.2265,-0.2277,-0.221,-0.2252,-0.228,-0.228,-0.2159,-0.2079,-0.1935,-0.1847,-0.2183,-0.2182,-0.2181,0,-0.2469,-0.2392,-0.2306,-0.2244,-0.2228,-0.2211,-0.2208,-0.2197,-0.2216,-0.2243,-0.2243,-0.2275,-0.2205,-0.2233,-0.2165,-0.2208,-0.2183,-0.2172,-0.217,-0.2138,-0.2179,-0.1934,-0.1818,-0.2165,-0.2166,-0.2167,-0.2168,0,-0.2457,-0.2343,-0.2276,-0.2254,-0.2185,-0.2182,-0.2172,-0.2188,-0.2196,-0.2208,-0.2229,-0.2199,-0.2184,-0.2157,-0.2122,-0.2157,-0.206,-0.2106,-0.1996,-0.1991,-0.1894,-0.1882,-0.2033,-0.2033,-0.2033,-0.2034,-0.2034,0,-0.2438,-0.2374,-0.2267,-0.2236,-0.2159,-0.2148,-0.214,-0.2144,-0.2177,-0.2182,-0.2196,-0.2179,-0.2171,-0.2128,-0.2104,-0.2002,-0.2037,-0.195,-0.1949,-0.1841,-0.1826,-0.2145,-0.2159,-0.2031,-0.2031,-0.2032,-0.2032,0,-0.2441,-0.2389,-0.2279,-0.2183,-0.2155,-0.2105,-0.2099,-0.2105,-0.2151,-0.2155,-0.2157,-0.2153,-0.2077,-0.2048,-0.1986,-0.1956,-0.1887,-0.1841,-0.1706,-0.1688,-0.1843,-0.1851,-0.171,-0.1706,-0.1703,-0.17,-0.1697,0,-0.2422,-0.2371,-0.2234,-0.2162,-0.2119,-0.2058,-0.2036,-0.2073,-0.2086,-0.2126,-0.2113,-0.206,-0.1974,-0.1838,-0.1749,-0.1647,-0.1754,-0.1502,-0.1516,-0.1787,-0.1802,-0.1816,-0.1828,-0.1331,-0.1326,-0.1322,-0.1319,0,-0.2343,-0.2326,-0.2242,-0.2109,-0.2043,-0.1956,-0.1936,-0.1946,-0.201,-0.2018,-0.1977,-0.1911,-0.1758,-0.1555,-0.1443,-0.1386,-0.151,-0.1412,-0.1706,-0.144,-0.1425,-0.1442,-0.1468,-0.1281,-0.1285,-0.1288,-0.129,-0.1291,-0.2276,-0.222,-0.2146,-0.2009,-0.1935,-0.1848,-0.1786,-0.179,-0.1779,-0.1755,-0.1798,-0.1648,-0.1592,-0.1292,-0.1186,-0.1092,-0.1206,-0.1194,-0.1209,-0.1228,-0.1202,-0.1182,-0.0987,-0.0989,-0.0991,-0.0993,-0.0994,0,-0.2132,-0.2114,-0.2032,-0.1868,-0.1747,-0.1771,-0.1706,-0.1632,-0.1566,-0.1522,-0.1463,-0.1306,-0.1133,-0.1053,-0.0822,-0.0784,-0.0802,-0.0778,-0.0812,-0.0848,-0.088,-0.084,-0.0527,-0.0526,-0.0525,-0.0524,0,0,-0.2063,-0.1971,-0.1949,-0.1695,-0.1621,-0.1491,-0.1446,-0.1343,-0.1263,-0.1113,-0.1029,-0.1087,-0.1036,-0.0827,-0.0743,-0.0577,-0.0713,-0.0544,-0.0912,-0.0986,-0.1017,-0.1105,-0.108,0,0,0,0,0]},{"header":{"parameterUnit":"m.s-1","parameterCategory":2,"la1":30.2991,"la2":30.254,"lo1":-89.0895,"lo2":-89.0444,"dy":0.0017,"dx":0.0017,"nx":28,"ny":28,"refTime":"2025-07-20T09:00:00:Z","depth":"2","parameterNumber":3,"parameterNumberName":"V-component_of_CURRENTS"},"data":[0,0,0,0,0,0,0,0,0,0,0,0,0,0,0,0,0,0,0,0,0,0,0,0,0,0,0,0,0,0,0,0,0,0,0,0,0,0,0,0,0,0,0,0,0,0,0,0,0,0,0,0,0,0,0,0,0,0,-0.032,-0.0319,0,-0.0249,-0.0248,-0.0247,-0.0175,-0.0174,-0.0174,-0.0173,0.0067,0.0073,0.0079,0,0,0,0,0,0,0,0,0,0,0,0,0,-0.0364,-0.0363,-0.032,-0.0319,-0.0318,-0.0249,-0.0248,-0.0247,-0.0175,-0.0174,-0.0173,-0.0173,0.0066,0.0072,0.0079,0,0,0,0,0,0,0,0,0,0,0,0,0,-0.0322,-0.0363,-0.032,-0.0276,-0.0272,-0.025,-0.0248,-0.0247,-0.0175,-0.0174,-0.0173,-0.0172,0.0063,0.0072,0.008,0.011,0,0,0.0106,0.011,0,0,0,0,0,0,0,0,-0.0324,-0.032,-0.0283,-0.0279,-0.0274,-0.0222,-0.0176,-0.012,-0.0176,-0.0209,-0.0173,-0.0172,-0.0016,-0.0001,0.0011,0.0121,0.0131,0.0107,0.0112,0.0116,0.0118,0,0,0,0,0,0,0,-0.0327,-0.0323,-0.0289,-0.0283,-0.0277,-0.025,-0.0243,-0.0165,-0.0115,-0.0206,-0.0202,-0.0198,-0.0012,0.0002,0.0017,0.0135,0.0107,0.0114,0.0119,0.0123,0.0365,0.0366,0,0,0,0,0,0,-0.0344,-0.0326,-0.0292,-0.0287,-0.03,-0.0251,-0.0243,-0.0238,-0.0119,-0.0102,-0.0199,-0.0195,-0.0013,0.0007,0.0026,0.0088,0.0116,0.0124,0.0128,0.0364,0.0365,0.0367,0,0,0,0,0,0,-0.0345,-0.0341,-0.0294,-0.0307,-0.0299,-0.0252,-0.0247,-0.0237,-0.0205,-0.0116,-0.0095,-0.0175,-0.0011,0.0014,0.0113,0.0097,0.0127,0.0135,0.0362,0.0364,0.0366,0.0199,0,0,0,0,0,0,-0.0347,-0.0342,-0.0328,-0.0308,-0.0299,-0.0288,-0.0248,-0.0237,-0.0207,-0.02,-0.0089,-0.0067,-0.0008,0.01,0.0121,0.011,0.0142,0.036,0.0363,0.0365,0.0203,0.0196,0.0189,0,0,0,0,0,-0.0348,-0.0346,-0.0328,-0.0323,-0.0287,-0.0289,-0.0282,-0.0243,-0.0207,-0.0206,-0.0114,-0.0069,0.0131,0.0107,0.0133,0.0123,0.0359,0.0362,0.0365,0.0207,0.0197,0.0189,0,0,0,0,0,0,-0.0364,-0.0338,-0.0318,-0.0308,-0.03,-0.0278,-0.0265,-0.0238,-0.0169,-0.0146,-0.0052,-0.0024,0.0055,0.0128,0.01,0.0208,0.0253,0.0261,0.0124,0.0116,0.0109,0.0093,0.0149,0,0,0,0,0,-0.0361,-0.0344,-0.0332,-0.0323,-0.032,-0.0288,-0.0274,-0.0256,-0.0203,-0.0172,-0.0093,0.0005,0.0083,0.013,0.0214,0.0273,0.0334,0.0289,0.0282,0.0275,0.0284,0.0359,0.0357,0.0376,0.0376,0.0376,0,0,-0.0368,-0.0347,-0.0339,-0.0323,-0.0307,-0.0314,-0.0276,-0.0268,-0.0258,-0.0153,-0.009,-0.0013,0.0099,0.0157,0.0199,0.0215,0.0298,0.0278,0.027,0.0285,0.0361,0.0359,0.0357,0.0378,0.0378,0.0378,0,0,-0.0396,-0.0355,-0.0363,-0.0356,-0.034,-0.0321,-0.032,-0.0293,-0.0262,-0.0207,-0.0127,-0.0059,0.0069,0.0122,0.0173,0.0187,0.026,0.0223,0.0163,0.0233,0.0231,0.023,0.027,0.0274,0.0212,0.0212,0.0212,0,-0.0406,-0.0406,-0.0369,-0.0381,-0.0372,-0.0328,-0.0347,-0.0317,-0.0257,-0.022,-0.0197,-0.0017,0.0047,0.0127,0.0111,0.0163,0.0217,0.0168,0.0217,0.0218,0.0219,0.0262,0.0268,0.0204,0.0205,0.0206,0.0207,0,-0.0452,-0.0444,-0.045,-0.0439,-0.0427,-0.0434,-0.0401,-0.0369,-0.0318,-0.0278,-0.0184,-0.0099,0.001,0.0023,0.0062,0.011,0.0147,0.0192,0.0218,0.0206,0.0253,0.0262,0.0193,0.0196,0.0198,0.02,0,0,-0.0504,-0.0486,-0.0487,-0.0485,-0.0454,-0.0456,-0.0428,-0.039,-0.0353,-0.0288,-0.0232,-0.0146,-0.009,-0.0028,0.003,0.0065,0.0076,0.0115,0.0123,0.0118,0.0218,0.024,0.0253,0.0129,0.013,0.0132,0.0231,0,-0.0553,-0.0581,-0.0554,-0.0569,-0.058,-0.052,-0.0497,-0.0447,-0.0381,-0.0313,-0.0222,-0.0143,-0.0109,-0.0071,-0.0029,0.0069,0.0102,0.0044,0.0266,0.0273,0.0263,0.0265,0.025,0.0339,0.0241,0.0243,0.0244,0,-0.0617,-0.0615,-0.0648,-0.0619,-0.0618,-0.0618,-0.0549,-0.0525,-0.0417,-0.0363,-0.0265,-0.0174,-0.01,-0.0075,0.0075,0.0042,0.0115,0.0176,0.0183,0.0275,0.0314,0.035,0.0361,0.0261,0.026,0.0258,0.0257,0,-0.0677,-0.068,-0.0699,-0.0693,-0.0661,-0.0652,-0.0626,-0.0539,-0.0506,-0.039,-0.0344,-0.0206,-0.0134,-0.002,0.0105,0.0097,0.0269,0.0285,0.0376,0.0378,0.0448,0.0454,0.039,0.039,0.039,0.039,0.0389,0,-0.074,-0.0755,-0.073,-0.0743,-0.075,-0.0707,-0.0693,-0.0637,-0.0557,-0.0513,-0.0377,-0.0292,-0.0115,0.0014,0.0112,0.0277,0.0288,0.0373,0.0414,0.0389,0.0388,0.0401,0.0401,0.0393,0.0393,0.0392,0.0391,0,-0.0814,-0.08,-0.0819,-0.0793,-0.0788,-0.0793,-0.0759,-0.0739,-0.0656,-0.0594,-0.056,-0.035,-0.0165,0.0001,0.0204,0.0293,0.0435,0.049,0.043,0.0463,0.0489,0.048,0.0601,0.0603,0.0604,0.0605,0.0607,0,-0.0854,-0.0875,-0.0866,-0.0878,-0.0874,-0.0872,-0.0869,-0.08,-0.0774,-0.0619,-0.0588,-0.0376,-0.0177,0.0135,0.0313,0.051,0.0497,0.059,0.0572,0.0487,0.0515,0.0503,0.0492,0.0588,0.0588,0.0589,0.059,0,-0.0921,-0.0919,-0.0932,-0.0961,-0.0971,-0.0969,-0.0959,-0.0954,-0.0861,-0.0777,-0.0594,-0.0409,-0.007,0.0213,0.0461,0.0558,0.0555,0.061,0.0575,0.053,0.0482,0.0506,0.0495,0.0596,0.0595,0.0595,0.0594,0.0594,-0.0961,-0.0993,-0.1014,-0.1033,-0.105,-0.1056,-0.1054,-0.1011,-0.0948,-0.0788,-0.0602,-0.0284,-0.0044,0.0374,0.0519,0.0642,0.0648,0.0672,0.0667,0.0663,0.0637,0.0594,0.0722,0.0722,0.0722,0.0722,0.0722,0,-0.0999,-0.1039,-0.1081,-0.11,-0.1115,-0.1117,-0.11,-0.1055,-0.0966,-0.0744,-0.0518,-0.0199,0.0132,0.037,0.0598,0.0722,0.0689,0.0713,0.0657,0.0652,0.0647,0.0617,0.0699,0.0699,0.0699,0.0699,0,0,-0.1024,-0.1078,-0.11,-0.1136,-0.116,-0.1175,-0.1164,-0.1063,-0.0887,-0.0635,-0.0386,-0.0099,0.022,0.0338,0.0491,0.0628,0.0597,0.0618,0.0629,0.0543,0.0536,0.0624,0.0573,0,0,0,0,0]}],[{"header":{"parameterUnit":"m.s-1","parameterCategory":2,"la1":30.2991,"la2":30.254,"lo1":-89.0895,"lo2":-89.0444,"dy":0.0017,"dx":0.0017,"nx":28,"ny":28,"refTime":"2025-07-20T09:00:00:Z","depth":"4","parameterNumber":2,"parameterNumberName":"U-component_of_CURRENTS"},"data":[0,0,0,0,0,0,0,0,0,0,0,0,0,0,0,0,0,0,0,0,0,0,0,0,0,0,0,0,0,0,0,0,0,0,0,0,0,0,0,0,0,0,0,0,0,0,0,0,0,0,0,0,0,0,0,0,0,0,-0.1313,-0.1314,0,-0.139,-0.1391,-0.1392,-0.1432,-0.1432,-0.1432,-0.1432,-0.1499,-0.15,-0.1502,0,0,0,0,0,0,0,0,0,0,0,0,0,-0.1207,-0.1208,-0.1313,-0.1314,-0.1315,-0.139,-0.1391,-0.1392,-0.1432,-0.1432,-0.1432,-0.1432,-0.1498,-0.15,-0.1502,0,0,0,0,0,0,0,0,0,0,0,0,0,-0.1265,-0.1209,-0.1313,-0.1344,-0.1348,-0.139,-0.1391,-0.1393,-0.1432,-0.1432,-0.1432,-0.1432,-0.1498,-0.15,-0.1503,-0.1516,0,0,-0.151,-0.1512,0,0,0,0,0,0,0,0,-0.1262,-0.1269,-0.1339,-0.1342,-0.1346,-0.1402,-0.1378,-0.1433,-0.1432,-0.14,-0.1432,-0.1432,-0.1465,-0.1471,-0.1485,-0.1519,-0.1522,-0.1511,-0.1512,-0.1513,-0.1514,0,0,0,0,0,0,0,-0.1257,-0.1266,-0.1344,-0.134,-0.1344,-0.1356,-0.1365,-0.1389,-0.1431,-0.1403,-0.1406,-0.1415,-0.1467,-0.1482,-0.1487,-0.1523,-0.1511,-0.1513,-0.1514,-0.1515,-0.1621,-0.1623,0,0,0,0,0,0,-0.1248,-0.1262,-0.1341,-0.1346,-0.1304,-0.1358,-0.1368,-0.1384,-0.1431,-0.1438,-0.1414,-0.1416,-0.1478,-0.1484,-0.1489,-0.156,-0.1513,-0.1516,-0.1517,-0.162,-0.1622,-0.1623,0,0,0,0,0,0,-0.1246,-0.1255,-0.1338,-0.1305,-0.1317,-0.136,-0.1378,-0.1385,-0.1422,-0.144,-0.1447,-0.1446,-0.1478,-0.1485,-0.1532,-0.1561,-0.1517,-0.1519,-0.1619,-0.1621,-0.1622,-0.1669,0,0,0,0,0,0,-0.1243,-0.1254,-0.1274,-0.1305,-0.1318,-0.1376,-0.1378,-0.1387,-0.1426,-0.143,-0.1469,-0.1474,-0.1479,-0.1528,-0.1534,-0.1564,-0.1521,-0.1617,-0.1619,-0.1622,-0.1666,-0.1672,-0.1677,0,0,0,0,0,-0.1239,-0.126,-0.1275,-0.1285,-0.1341,-0.1377,-0.1386,-0.1416,-0.1428,-0.1449,-0.1478,-0.1474,-0.1547,-0.1531,-0.1538,-0.1569,-0.1616,-0.1619,-0.1622,-0.1663,-0.1671,-0.1677,0,0,0,0,0,0,-0.1224,-0.1267,-0.1284,-0.1318,-0.1352,-0.1384,-0.141,-0.143,-0.1471,-0.148,-0.1495,-0.1502,-0.1548,-0.1555,-0.1537,-0.1606,-0.158,-0.1584,-0.1609,-0.1616,-0.1622,-0.1626,-0.1523,0,0,0,0,0,-0.123,-0.1259,-0.1298,-0.1328,-0.1347,-0.1384,-0.1408,-0.1429,-0.1463,-0.1482,-0.1509,-0.1538,-0.1562,-0.1587,-0.1605,-0.1652,-0.1633,-0.1675,-0.1681,-0.1686,-0.1694,-0.1688,-0.1694,-0.1632,-0.1632,-0.1632,0,0,-0.123,-0.126,-0.1277,-0.1327,-0.1357,-0.1395,-0.1399,-0.1442,-0.1481,-0.1482,-0.1547,-0.1558,-0.1577,-0.1622,-0.1644,-0.1637,-0.1692,-0.1689,-0.1693,-0.1699,-0.1692,-0.1698,-0.1703,-0.1634,-0.1634,-0.1634,0,0,-0.1237,-0.1276,-0.1301,-0.1338,-0.1388,-0.1415,-0.1432,-0.148,-0.1513,-0.1569,-0.1575,-0.1608,-0.1657,-0.1675,-0.1689,-0.1742,-0.1716,-0.1749,-0.1795,-0.179,-0.1794,-0.1798,-0.1771,-0.1772,-0.1761,-0.1762,-0.1762,0,-0.1239,-0.1281,-0.1313,-0.1351,-0.1389,-0.1427,-0.1467,-0.1506,-0.1565,-0.1594,-0.1596,-0.1665,-0.1681,-0.1732,-0.1753,-0.1756,-0.1739,-0.1765,-0.1796,-0.18,-0.1803,-0.1774,-0.1775,-0.1764,-0.1764,-0.1764,-0.1763,0,-0.1262,-0.1308,-0.1329,-0.1392,-0.1434,-0.1478,-0.1532,-0.1579,-0.162,-0.1653,-0.1714,-0.1735,-0.1774,-0.1787,-0.1792,-0.1831,-0.1805,-0.1794,-0.1775,-0.1812,-0.1779,-0.1779,-0.1768,-0.1767,-0.1766,-0.1765,0,0,-0.1235,-0.1327,-0.1339,-0.1381,-0.1466,-0.15,-0.1571,-0.1641,-0.169,-0.174,-0.1792,-0.1842,-0.1849,-0.1865,-0.1871,-0.1881,-0.1887,-0.1858,-0.1856,-0.1825,-0.1859,-0.1721,-0.1707,-0.188,-0.1881,-0.1881,-0.1823,0,-0.1248,-0.1319,-0.1369,-0.1449,-0.1491,-0.1561,-0.1624,-0.1692,-0.1747,-0.1803,-0.1834,-0.1879,-0.1881,-0.1899,-0.1911,-0.189,-0.1891,-0.1903,-0.1834,-0.1831,-0.1699,-0.1704,-0.1883,-0.1822,-0.1822,-0.1822,-0.1822,0,-0.1252,-0.1306,-0.138,-0.1486,-0.1513,-0.1569,-0.1676,-0.1738,-0.1821,-0.186,-0.1909,-0.1926,-0.196,-0.1945,-0.1935,-0.1942,-0.1911,-0.1889,-0.1886,-0.1741,-0.1693,-0.1781,-0.1821,-0.1821,-0.1821,-0.1821,-0.1822,0,-0.1205,-0.1314,-0.1377,-0.1417,-0.1535,-0.1589,-0.1657,-0.1753,-0.1806,-0.189,-0.1919,-0.1963,-0.1971,-0.1958,-0.1919,-0.1931,-0.1877,-0.1882,-0.1728,-0.1717,-0.184,-0.1837,-0.1869,-0.1869,-0.187,-0.187,-0.187,0,-0.1188,-0.1242,-0.1365,-0.14,-0.1482,-0.1574,-0.166,-0.1732,-0.1822,-0.1865,-0.1939,-0.195,-0.1975,-0.1949,-0.1919,-0.1803,-0.1872,-0.1728,-0.1693,-0.1859,-0.1859,-0.1839,-0.1836,-0.1867,-0.1868,-0.1868,-0.1869,0,-0.1117,-0.1198,-0.1277,-0.1412,-0.1457,-0.1513,-0.1648,-0.1698,-0.1798,-0.1848,-0.1872,-0.1932,-0.1883,-0.1875,-0.183,-0.1773,-0.1698,-0.1642,-0.1802,-0.1778,-0.1546,-0.1547,-0.1469,-0.1464,-0.1459,-0.1456,-0.1452,0,-0.1087,-0.112,-0.1265,-0.1304,-0.1368,-0.1469,-0.1528,-0.1662,-0.1704,-0.1812,-0.1808,-0.1812,-0.1824,-0.1642,-0.1655,-0.1564,-0.1549,-0.1517,-0.1557,-0.1531,-0.1505,-0.1513,-0.152,-0.1445,-0.1444,-0.1443,-0.1442,0,-0.1024,-0.1084,-0.1143,-0.1223,-0.1295,-0.1372,-0.1465,-0.1483,-0.1616,-0.1721,-0.1694,-0.1663,-0.1594,-0.1538,-0.1463,-0.1412,-0.1546,-0.1469,-0.1479,-0.1517,-0.1501,-0.1482,-0.1494,-0.1426,-0.1428,-0.143,-0.143,0,-0.0975,-0.0994,-0.1069,-0.1129,-0.1207,-0.124,-0.1313,-0.1358,-0.1417,-0.1546,-0.1521,-0.1525,-0.1571,-0.1455,-0.1392,-0.1316,-0.1306,-0.1292,-0.1312,-0.133,-0.1308,-0.1269,-0.1083,0,0,0,0,0,-0.0921,-0.0925,-0.097,-0.1024,-0.1091,-0.1136,-0.1252,-0.1326,-0.1451,-0.139,-0.1458,-0.139,-0.1307,-0.131,-0.1194,-0.1305,-0.1298,-0.1168,-0.1291,-0.1338,-0.1356,-0.1342,0,0,0,0,0,0,-0.0882,-0.0914,-0.093,-0.0917,-0.0928,-0.0993,-0.1057,-0.1148,-0.1129,-0.1254,-0.12,-0.1304,-0.1219,-0.1324,-0.1158,-0.1156,-0.1208,-0.1183,-0.1179,-0.1328,-0.1344,-0.1359,-0.1351,0,0,0,0,0]},{"header":{"parameterUnit":"m.s-1","parameterCategory":2,"la1":30.2991,"la2":30.254,"lo1":-89.0895,"lo2":-89.0444,"dy":0.0017,"dx":0.0017,"nx":28,"ny":28,"refTime":"2025-07-20T09:00:00:Z","depth":"4","parameterNumber":3,"parameterNumberName":"V-component_of_CURRENTS"},"data":[0,0,0,0,0,0,0,0,0,0,0,0,0,0,0,0,0,0,0,0,0,0,0,0,0,0,0,0,0,0,0,0,0,0,0,0,0,0,0,0,0,0,0,0,0,0,0,0,0,0,0,0,0,0,0,0,0,0,-0.0313,-0.0313,0,-0.0285,-0.0285,-0.0284,-0.026,-0.026,-0.026,-0.026,-0.0196,-0.0194,-0.0193,0,0,0,0,0,0,0,0,0,0,0,0,0,-0.0311,-0.0311,-0.0313,-0.0313,-0.0312,-0.0285,-0.0285,-0.0284,-0.026,-0.026,-0.026,-0.026,-0.0196,-0.0194,-0.0192,0,0,0,0,0,0,0,0,0,0,0,0,0,-0.0299,-0.0311,-0.0313,-0.0298,-0.0297,-0.0285,-0.0285,-0.0284,-0.026,-0.026,-0.026,-0.026,-0.0197,-0.0195,-0.0192,-0.0181,0,0,-0.0185,-0.0184,0,0,0,0,0,0,0,0,-0.03,-0.0299,-0.0301,-0.0299,-0.0298,-0.0277,-0.0261,-0.0248,-0.026,-0.0272,-0.026,-0.026,-0.0221,-0.0217,-0.021,-0.0178,-0.0175,-0.0185,-0.0183,-0.0182,-0.0181,0,0,0,0,0,0,0,-0.0301,-0.03,-0.03,-0.0301,-0.0299,-0.0282,-0.028,-0.0258,-0.0246,-0.0271,-0.027,-0.027,-0.022,-0.0212,-0.0208,-0.0174,-0.0185,-0.0183,-0.0181,-0.018,-0.0133,-0.0133,0,0,0,0,0,0,-0.0309,-0.0301,-0.0301,-0.0299,-0.03,-0.0282,-0.028,-0.0283,-0.0247,-0.0242,-0.027,-0.0269,-0.0216,-0.0211,-0.0206,-0.0184,-0.0182,-0.018,-0.0179,-0.0133,-0.0133,-0.0133,0,0,0,0,0,0,-0.031,-0.031,-0.0302,-0.03,-0.0299,-0.0283,-0.0286,-0.0282,-0.0279,-0.0247,-0.0241,-0.0271,-0.0216,-0.0209,-0.0191,-0.0182,-0.0179,-0.0177,-0.0133,-0.0133,-0.0133,-0.0145,0,0,0,0,0,0,-0.031,-0.031,-0.0317,-0.0301,-0.0299,-0.0302,-0.0286,-0.0282,-0.028,-0.0278,-0.0245,-0.0239,-0.0215,-0.0195,-0.0189,-0.0178,-0.0175,-0.0132,-0.0133,-0.0133,-0.0144,-0.0145,-0.0146,0,0,0,0,0,-0.031,-0.032,-0.0318,-0.0318,-0.0309,-0.0302,-0.03,-0.0286,-0.028,-0.0282,-0.026,-0.024,-0.0193,-0.0194,-0.0186,-0.0174,-0.0132,-0.0133,-0.0133,-0.0144,-0.0145,-0.0146,0,0,0,0,0,0,-0.0321,-0.0318,-0.0315,-0.0324,-0.0317,-0.0299,-0.03,-0.0292,-0.0276,-0.0274,-0.0242,-0.0234,-0.0217,-0.0199,-0.02,-0.0164,-0.0159,-0.0158,-0.017,-0.0171,-0.0172,-0.016,-0.0173,0,0,0,0,0,-0.0329,-0.0336,-0.0327,-0.0335,-0.0333,-0.0318,-0.0315,-0.0308,-0.0292,-0.0285,-0.0262,-0.0237,-0.0213,-0.0195,-0.0178,-0.0155,-0.0119,-0.0144,-0.0145,-0.0146,-0.0132,-0.0061,-0.0054,-0.0135,-0.0135,-0.0135,0,0,-0.0335,-0.0335,-0.0339,-0.0338,-0.0331,-0.0331,-0.0316,-0.0315,-0.0308,-0.028,-0.0264,-0.0245,-0.0212,-0.0188,-0.0178,-0.0169,-0.0111,-0.0146,-0.0147,-0.0133,-0.0061,-0.0053,-0.0045,-0.0135,-0.0135,-0.0135,0,0,-0.0352,-0.0352,-0.0364,-0.0362,-0.0359,-0.0346,-0.0349,-0.0335,-0.0321,-0.031,-0.0284,-0.0252,-0.023,-0.0187,-0.0166,-0.0162,-0.0126,-0.0169,-0.0151,-0.0084,-0.0076,-0.0068,-0.0036,-0.0025,-0.016,-0.016,-0.016,0,-0.0362,-0.0376,-0.0366,-0.0376,-0.0376,-0.0356,-0.0364,-0.0345,-0.0326,-0.0304,-0.031,-0.0242,-0.022,-0.0159,-0.0163,-0.0159,-0.0132,-0.0148,-0.0082,-0.0074,-0.0066,-0.0034,-0.0022,-0.0161,-0.0161,-0.016,-0.016,0,-0.0385,-0.0398,-0.0404,-0.0408,-0.0404,-0.0411,-0.0386,-0.0371,-0.0355,-0.0327,-0.0278,-0.0238,-0.019,-0.0182,-0.0173,-0.0105,-0.011,-0.0098,-0.0075,-0.0058,-0.0027,-0.0014,-0.0161,-0.0161,-0.0161,-0.0161,0,0,-0.0401,-0.0419,-0.0421,-0.0434,-0.0425,-0.0425,-0.0403,-0.037,-0.0347,-0.0309,-0.0265,-0.0213,-0.0179,-0.0153,-0.0123,-0.0063,0.0001,-0.0063,-0.0059,-0.0024,0.0127,0.0096,0.0106,0.0025,0.0027,0.0029,0.0117,0,-0.0423,-0.0457,-0.0451,-0.0471,-0.0485,-0.0456,-0.0438,-0.0402,-0.0361,-0.0313,-0.0234,-0.0193,-0.017,-0.015,-0.008,-0.0026,0.0038,-0.0025,0.01,0.0103,0.0081,0.0122,0.0038,0.0127,0.013,0.0132,0.0134,0,-0.0444,-0.0466,-0.0498,-0.0508,-0.0509,-0.0514,-0.0475,-0.0455,-0.0368,-0.0335,-0.0251,-0.0197,-0.01,-0.0092,0.0056,0.0011,0.007,0.0119,0.0124,0.0115,0.0098,0.0113,0.0157,0.0155,0.0154,0.0152,0.0151,0,-0.0465,-0.0494,-0.0524,-0.0531,-0.0535,-0.0536,-0.0527,-0.0463,-0.0438,-0.0343,-0.0312,-0.0182,-0.0124,-0.0015,0.0087,0.0073,0.024,0.0236,0.0274,0.0271,0.0277,0.0268,0.0358,0.0358,0.0358,0.0358,0.0357,0,-0.0486,-0.051,-0.0544,-0.0563,-0.0591,-0.0575,-0.0573,-0.0536,-0.0475,-0.0433,-0.0328,-0.0259,-0.01,0.0013,0.01,0.0224,0.026,0.0292,0.0307,0.0263,0.0252,0.0284,0.0275,0.0361,0.036,0.036,0.0359,0,-0.05,-0.0523,-0.0565,-0.0594,-0.0607,-0.0626,-0.063,-0.0616,-0.0555,-0.0496,-0.0468,-0.0306,-0.0153,-0.0005,0.0176,0.0233,0.0352,0.0389,0.0317,0.0323,0.033,0.0319,0.0441,0.0441,0.0441,0.0441,0.0441,0,-0.0511,-0.0536,-0.0599,-0.0633,-0.0655,-0.0684,-0.0699,-0.0663,-0.0641,-0.0519,-0.0487,-0.0321,-0.0204,0.0033,0.0181,0.0359,0.0379,0.0423,0.0398,0.0345,0.0346,0.0335,0.0323,0.0441,0.0441,0.0441,0.0441,0,-0.053,-0.0556,-0.0592,-0.0667,-0.071,-0.0748,-0.0763,-0.0755,-0.0687,-0.0635,-0.0484,-0.0334,-0.0154,0.0039,0.0182,0.0307,0.0383,0.0423,0.0424,0.0401,0.0346,0.0345,0.0334,0.0441,0.0441,0.0441,0.0441,0,-0.0541,-0.0576,-0.063,-0.0688,-0.0752,-0.079,-0.0798,-0.0759,-0.0727,-0.0591,-0.0537,-0.0328,-0.019,0.0013,0.0143,0.0265,0.0289,0.03,0.0307,0.0309,0.0239,0.0147,0.0212,0,0,0,0,0,-0.0545,-0.0583,-0.0645,-0.0713,-0.0776,-0.0806,-0.0825,-0.0815,-0.0755,-0.0659,-0.0595,-0.0422,-0.0179,-0.0056,0.0063,0.012,0.0287,0.0257,0.0297,0.0441,0.0441,0.0379,0,0,0,0,0,0,-0.0552,-0.0607,-0.0641,-0.0718,-0.0764,-0.0824,-0.084,-0.0803,-0.074,-0.0655,-0.0516,-0.0419,-0.0178,-0.0239,0.0063,0.0104,0.0135,0.0384,0.0386,0.0441,0.0441,0.0441,0.0377,0,0,0,0,0]}]]